Tracking 20037 objects as of 21-Nov-2019
Live streaming from Space Station
objects crossing your sky now

TIROS N DEB

Track TIROS N DEB now!
10-day predictions


NORAD ID: 11062
Int'l Code: 1978-096C
Perigee: 576.0 km
Apogee: 580.1 km
Inclination: 98.9 °
Period: 96.1 minutes
Semi major axis: 6949 km
RCS: 0.056 m2 (small)
Launch date: October 13, 1978
Source: United States (US)
Launch site: AIR FORCE WESTERN TEST RANGE (AFWTR)

Note: This is SATELLITE DEBRIS
aabbcc
Your satellite tracking list
Your tracking list is empty




NASA's NSSDC Master Catalog

Two Line Element Set (TLE):
1 11062U 78096C   19324.89809186  .00001393  00000-0  12214-3 0  9997
2 11062  98.8813 298.3407 0002966  62.4515 297.7006 14.98693090176787
Source of the keplerian elements: AFSPC